Weather History for KCXY - April, 2013

Change the Weather History Date:

Thursday, April 25, 2013

  Actual Average Record
Temperature  
Mean Temperature 52 °F -  
Max Temperature 61 °F 64 °F 93 °F (1915)
Min Temperature 44 °F 42 °F 30 °F (1956)
Degree Days  
Heating Degree Days 12    
Growing Degree Days 2 (Base 50)    
Moisture  
Dew Point 31 °F    
Average Humidity 47    
Maximum Humidity 63    
Minimum Humidity 29    
Precipitation  
Precipitation 0.00 in - - ()
Sea Level Pressure  
Sea Level Pressure 30.22 in    
Wind  
Wind Speed 10 mph (WNW)    
Max Wind Speed 17 mph    
Max Gust Speed 28 mph    
Visibility 10 miles    
Events      
Averages and records for this station are not official NWS values.
T = Trace of Precipitation, MM = Missing Value Source: NWS Daily Summary

Daily Weather History Graph

Daily Weather History Graph

Search for Another Location

Airport or City:

Trip Planner

Search our weather history database for the weather conditions in past years. The results will help you decide how hot, cold, wet, or windy it might be!

Date:

Astronomy

Apr. 25, 2013 Rise Set
Actual Time 6:14 AM EDT 7:56 PM EDT
Civil Twilight 5:45 AM EDT 8:25 PM EDT
Nautical Twilight 5:10 AM EDT 9:00 PM EDT
Astronomical Twilight 4:33 AM EDT 9:38 PM EDT
Moon 8:07 PM EDT (4/25) 5:56 AM EDT (4/25)
Length of Visible Light 14h 40m
Length of Day
13h 42m
Full, 100% of the Moon is Illuminated
Apr 25
Full
Apr 25
Full
May 2
Last Quarter
May 9
New
May 18
First Quarter

Hourly Weather History & Observations

Time (EDT) Temp. Windchill Dew Point Humidity Pressure Visibility Wind Dir Wind Speed Gust Speed Precip Events Conditions
12:56 AM 48.9 °F - 35.1 °F 59% 30.08 in 10.0 mi WNW 17.3 mph 27.6 mph N/A   Overcast
1:56 AM 48.0 °F - 34.0 °F 58% 30.10 in 10.0 mi NW 16.1 mph 23.0 mph N/A   Mostly Cloudy
2:56 AM 46.0 °F 41.4 °F 30.9 °F 56% 30.12 in 10.0 mi NW 9.2 mph 19.6 mph N/A   Mostly Cloudy
3:56 AM 44.1 °F 39.5 °F 30.9 °F 60% 30.14 in 10.0 mi WNW 8.1 mph - N/A   Mostly Cloudy
4:56 AM 44.1 °F 39.0 °F 30.9 °F 60% 30.18 in 10.0 mi WNW 9.2 mph - N/A   Overcast
5:56 AM 44.1 °F 37.4 °F 28.0 °F 53% 30.21 in 10.0 mi NW 13.8 mph 26.5 mph N/A   Partly Cloudy
6:56 AM 44.1 °F 39.0 °F 28.9 °F 55% 30.23 in 10.0 mi NW 9.2 mph - N/A   Partly Cloudy
7:56 AM 45.0 °F 39.7 °F 28.9 °F 53% 30.25 in 10.0 mi NW 10.4 mph - N/A   Partly Cloudy
8:56 AM 46.9 °F - 28.9 °F 50% 30.26 in 10.0 mi NW 12.7 mph 19.6 mph N/A   Partly Cloudy
9:56 AM 48.0 °F - 28.0 °F 46% 30.28 in 10.0 mi NNW 9.2 mph - N/A   Partly Cloudy
10:56 AM 50.0 °F - 28.9 °F 44% 30.28 in 10.0 mi North 6.9 mph - N/A   Clear
11:56 AM 53.1 °F - 30.9 °F 43% 30.27 in 10.0 mi Calm Calm - N/A   Partly Cloudy
12:56 PM 54.0 °F - 30.9 °F 41% 30.26 in 10.0 mi West 6.9 mph - N/A   Clear
1:56 PM 57.0 °F - 32.0 °F 39% 30.24 in 10.0 mi Variable 6.9 mph - N/A   Clear
2:56 PM 57.9 °F - 33.1 °F 39% 30.23 in 10.0 mi West 8.1 mph - N/A   Clear
3:56 PM 60.1 °F - 28.9 °F 31% 30.21 in 10.0 mi West 8.1 mph - N/A   Clear
4:56 PM 61.0 °F - 30.0 °F 31% 30.19 in 10.0 mi WSW 3.5 mph - N/A   Clear
5:56 PM 61.0 °F - 28.0 °F 29% 30.20 in 10.0 mi SSW 8.1 mph - N/A   Clear
6:56 PM 60.1 °F - 28.9 °F 31% 30.20 in 10.0 mi SW 6.9 mph - N/A   Clear
7:56 PM 57.0 °F - 28.0 °F 33% 30.21 in 10.0 mi SSW 5.8 mph - N/A   Clear
8:56 PM 54.0 °F - 32.0 °F 43% 30.23 in 10.0 mi Calm Calm - N/A   Clear
9:56 PM 51.1 °F - 32.0 °F 48% 30.27 in 10.0 mi Calm Calm - N/A   Clear
10:56 PM 46.9 °F - 33.1 °F 59% 30.29 in 10.0 mi Calm Calm - N/A   Clear
11:56 PM 46.9 °F - 35.1 °F 63% 30.30 in 10.0 mi Calm Calm - N/A   Clear